K5NCO Weather Reports


time (UTC)temp
F
wind
direction
speed
knots
gust
knots
rain 1hr
in
rain 24hr
in
rain mn
in
humidity
%
barometer
mb
20260831230806 96 49 3.5 5.2 0.00 0.00 0.00 39 1015.1
20260831230301 96 76 3.5 3.5 0.00 0.00 0.00 38 1015.0
20260831225800 96 94 6.1 7.0 0.00 0.00 0.00 38 1015.0
20260831225255 97 102 7.0 9.6 0.00 0.00 0.00 39 1015.0
20260831224751 97 32 2.6 3.5 0.00 0.00 0.00 39 1014.9
20260831224246 97 156 3.5 3.5 0.00 0.00 0.00 38 1015.0
20260831223741 97 123 2.6 5.2 0.00 0.00 0.00 38 1015.2
20260831223237 98 42 3.5 3.5 0.00 0.00 0.00 37 1015.2
20260831222733 97 108 5.2 7.0 0.00 0.00 0.00 36 1015.2
20260831222228 97 129 4.3 6.1 0.00 0.00 0.00 36 1015.3
20260831221724 97 147 7.0 11.3 0.00 0.00 0.00 36 1015.1
20260831221219 97 118 1.7 2.6 0.00 0.00 0.00 38 1015.2
20260831220714 97 236 2.6 2.6 0.00 0.00 0.00 38 1015.2
20260831220209 96 185 0.9 1.7 0.00 0.00 0.00 38 1015.2
20260831215704 96 175 3.5 3.5 0.00 0.00 0.00 38 1015.4
20260831215200 97 130 2.6 3.5 0.00 0.00 0.00 38 1015.5
20260831214657 95 118 1.7 2.6 0.00 0.00 0.00 40 1015.6
20260831214154 95 120 3.5 6.1 0.00 0.00 0.00 40 1015.6
20260831213649 96 191 1.7 2.6 0.00 0.00 0.00 40 1015.6
20260831213145 96 116 7.0 8.7 0.00 0.00 0.00 40 1015.7
20260831212640 96 56 2.6 5.2 0.00 0.00 0.00 42 1015.7
20260831212137 96 156 3.5 3.5 0.00 0.00 0.00 40 1015.7
20260831211635 96 66 6.1 8.7 0.00 0.00 0.00 39 1015.8
20260831211130 96 191 5.2 6.1 0.00 0.00 0.00 41 1016.0
20260831210625 95 150 3.5 5.2 0.00 0.00 0.00 42 1016.2
20260831210121 95 147 2.6 3.5 0.00 0.00 0.00 42 1016.1
20260831205620 96 101 7.0 7.8 0.00 0.00 0.00 43 1016.1
20260831205116 96 140 2.6 2.6 0.00 0.00 0.00 43 1016.1
20260831204616 96 214 3.5 3.5 0.00 0.00 0.00 41 1016.3
20260831204114 96 182 8.7 8.7 0.00 0.00 0.00 42 1016.5
20260831203609 95 126 5.2 7.0 0.00 0.00 0.00 42 1016.7
20260831203108 94 173 3.5 3.5 0.00 0.00 0.00 45 1016.8
20260831202608 94 90 3.5 3.5 0.00 0.00 0.00 47 1016.6
20260831202107 95 102 1.7 2.6 0.00 0.00 0.00 46 1016.8
20260831201606 96 216 1.7 2.6 0.00 0.00 0.00 43 1016.9
20260831201101 94 150 3.5 5.2 0.00 0.00 0.00 45 1016.8
20260831200557 93 98 2.6 2.6 0.00 0.00 0.00 48 1017.0
20260831200052 93 145 6.1 7.0 0.00 0.00 0.00 47 1017.0
20260831195548 93 36 3.5 5.2 0.00 0.00 0.00 48 1017.2
20260831195043 93 157 1.7 2.6 0.00 0.00 0.00 47 1017.2
20260831194538 95 196 1.7 2.6 0.00 0.00 0.00 46 1017.2
20260831194033 95 97 3.5 5.2 0.00 0.00 0.00 46 1017.2
20260831193528 95 190 7.0 8.7 0.00 0.00 0.00 47 1017.4
20260831193023 94 101 5.2 6.1 0.00 0.00 0.00 49 1017.4
20260831192517 94 94 3.5 6.1 0.00 0.00 0.00 48 1017.4
20260831192012 93 152 1.7 3.5 0.00 0.00 0.00 48 1017.5
20260831191503 95 92 1.7 2.6 0.00 0.00 0.00 46 1017.7
20260831190959 94 164 8.7 9.6 0.00 0.00 0.00 48 1017.6
20260831190454 93 151 4.3 6.1 0.00 0.00 0.00 48 1017.9
20260831185952 92 207 2.6 3.5 0.00 0.00 0.00 50 1017.9
20260831185449 93 201 4.3 5.2 0.00 0.00 0.00 49 1017.9
20260831184949 92 135 4.3 5.2 0.00 0.00 0.00 50 1017.8
20260831184443 93 142 3.5 5.2 0.00 0.00 0.00 50 1017.9
20260831183939 93 199 5.2 7.0 0.00 0.00 0.00 51 1017.9
20260831183437 93 121 7.8 11.3 0.00 0.00 0.00 50 1018.2
20260831182932 93 188 4.3 5.2 0.00 0.00 0.00 50 1018.3
20260831182427 92 151 6.1 7.0 0.00 0.00 0.00 51 1018.3
20260831181922 93 153 5.2 7.8 0.00 0.00 0.00 51 1018.3
20260831181417 91 119 2.6 3.5 0.00 0.00 0.00 54 1018.4
20260831180912 92 67 7.8 12.2 0.00 0.00 0.00 53 1018.3
20260831180406 92 134 0.9 1.7 0.00 0.00 0.00 55 1018.5
20260831175905 91 106 6.1 7.0 0.00 0.00 0.00 53 1018.4
20260831175402 92 186 3.5 5.2 0.00 0.00 0.00 52 1018.6
20260831174857 91 111 0.0 0.9 0.00 0.00 0.00 54 1018.6
20260831174347 91 55 3.5 5.2 0.00 0.00 0.00 55 1018.8
20260831173846 92 172 5.2 7.0 0.00 0.00 0.00 55 1018.9
20260831173340 91 185 7.0 7.8 0.00 0.00 0.00 52 1019.0
20260831172836 91 176 5.2 6.1 0.00 0.00 0.00 53 1019.1
20260831172331 91 88 10.4 12.2 0.00 0.00 0.00 54 1018.9
20260831171831 90 146 4.3 7.0 0.00 0.00 0.00 56 1019.0
20260831171327 90 76 2.6 2.6 0.00 0.00 0.00 58 1019.1
20260831170824 90 75 3.5 6.1 0.00 0.00 0.00 58 1019.2
20260831170320 90 179 3.5 3.5 0.00 0.00 0.00 58 1019.4
20260831165816 90 170 7.0 7.8 0.00 0.00 0.00 59 1019.5
20260831165312 89 164 7.0 7.8 0.00 0.00 0.00 57 1019.3
20260831164808 89 178 4.3 6.1 0.00 0.00 0.00 60 1019.2
20260831164304 89 206 7.8 8.7 0.00 0.00 0.00 60 1019.3
20260831163759 89 139 4.3 7.0 0.00 0.00 0.00 59 1019.1
20260831163255 88 77 1.7 2.6 0.00 0.00 0.00 60 1019.3
20260831162753 88 144 5.2 8.7 0.00 0.00 0.00 59 1019.1
20260831162248 88 158 4.3 6.1 0.00 0.00 0.00 64 1019.4
20260831161742 87 83 4.3 5.2 0.00 0.00 0.00 63 1019.1
20260831161238 88 120 5.2 7.8 0.00 0.00 0.00 65 1019.1
20260831160738 87 128 1.7 2.6 0.00 0.00 0.00 68 1019.2
20260831160228 87 132 7.0 8.7 0.00 0.00 0.00 69 1019.2
20260831155727 87 93 3.5 5.2 0.00 0.00 0.00 68 1019.1
20260831155223 87 170 0.0 0.0 0.00 0.00 0.00 68 1019.2
20260831154719 85 179 2.6 3.5 0.00 0.00 0.00 70 1019.3
20260831154215 86 157 3.5 3.5 0.00 0.00 0.00 71 1019.2
20260831153713 85 81 1.7 2.6 0.00 0.00 0.00 73 1019.2
20260831153209 86 121 3.5 3.5 0.00 0.00 0.00 72 1019.2
20260831152705 85 130 1.7 2.6 0.00 0.00 0.00 73 1019.2
20260831152200 86 120 5.2 6.1 0.00 0.00 0.00 72 1019.1
20260831151655 86 178 6.1 7.0 0.00 0.00 0.00 72 1019.2
20260831151149 85 135 6.1 7.0 0.00 0.00 0.00 72 1019.2
20260831150644 85 181 5.2 6.1 0.00 0.00 0.00 73 1019.0
20260831150140 85 110 1.7 2.6 0.00 0.00 0.00 73 1018.9
20260831145638 85 154 0.9 1.7 0.00 0.00 0.00 75 1018.8
20260831145135 84 233 1.7 1.7 0.00 0.00 0.00 76 1018.7
20260831144631 84 216 1.7 2.6 0.00 0.00 0.00 78 1018.8
20260831144126 83 162 4.3 5.2 0.00 0.00 0.00 79 1018.9
20260831143626 82 207 3.5 3.5 0.00 0.00 0.00 80 1019.0
20260831143121 82 201 4.3 6.1 0.00 0.00 0.00 80 1018.9
20260831142618 81 267 2.6 2.6 0.00 0.00 0.00 83 1018.8
20260831142113 81 218 4.3 5.2 0.00 0.00 0.00 83 1018.9
20260831141612 81 231 1.7 2.6 0.00 0.00 0.00 84 1018.9
20260831141107 81 206 3.5 6.1 0.00 0.00 0.00 85 1018.8
20260831140607 81 216 2.6 2.6 0.00 0.00 0.00 86 1018.7
20260831135559 80 243 2.6 2.6 0.00 0.00 0.00 87 1018.6
20260831135055 81 225 4.3 7.0 0.00 0.00 0.00 86 1018.5
20260831134550 80 232 3.5 3.5 0.00 0.00 0.00 87 1018.7
20260831134045 80 180 3.5 3.5 0.00 0.00 0.00 88 1018.5
20260831133544 80 243 1.7 2.6 0.00 0.00 0.00 88 1018.5
20260831133039 80 212 3.5 5.2 0.00 0.00 0.00 89 1018.5
20260831132536 80 197 3.5 5.2 0.00 0.00 0.00 89 1018.2
20260831132034 80 166 4.3 5.2 0.00 0.00 0.00 89 1018.4
20260831131529 79 194 5.2 7.0 0.00 0.00 0.00 89 1018.3
20260831131025 80 176 6.1 6.1 0.00 0.00 0.00 89 1018.3
20260831130520 79 173 3.5 5.2 0.00 0.00 0.00 90 1018.4
20260831130016 80 204 2.6 2.6 0.00 0.00 0.00 89 1018.2
20260831125509 79 210 1.7 1.7 0.00 0.00 0.00 89 1018.2
20260831125005 79 158 2.6 3.5 0.00 0.00 0.00 90 1017.9
20260831124501 79 218 3.5 6.1 0.00 0.00 0.00 90 1017.8
20260831123956 79 182 3.5 3.5 0.00 0.00 0.00 90 1017.8
20260831123455 79 206 1.7 1.7 0.00 0.00 0.00 90 1017.8
20260831122949 79 185 2.6 5.2 0.00 0.00 0.00 90 1017.7
20260831122445 79 208 2.6 3.5 0.00 0.00 0.00 90 1017.7
20260831121940 79 203 1.7 2.6 0.00 0.00 0.00 90 1017.8
20260831121436 79 224 2.6 3.5 0.00 0.00 0.00 90 1017.9
20260831120931 79 205 3.5 3.5 0.00 0.00 0.00 90 1017.7
20260831120426 79 225 2.6 3.5 0.00 0.00 0.00 89 1017.6
20260831115926 79 197 3.5 3.5 0.00 0.00 0.00 89 1017.7
20260831115422 79 221 4.3 6.1 0.00 0.00 0.00 89 1017.6
20260831114922 79 189 1.7 1.7 0.00 0.00 0.00 89 1017.7
20260831114421 79 185 1.7 2.6 0.00 0.00 0.00 89 1017.8
20260831113916 79 123 3.5 5.2 0.00 0.00 0.00 89 1017.5
20260831113416 79 213 4.3 5.2 0.00 0.00 0.00 89 1017.7
20260831112911 79 212 1.7 2.6 0.00 0.00 0.00 89 1017.8
20260831112406 79 199 3.5 5.2 0.00 0.00 0.00 89 1017.8
20260831111901 79 218 2.6 2.6 0.00 0.00 0.00 89 1017.6
20260831111357 79 196 4.3 5.2 0.00 0.00 0.00 89 1017.6
20260831110853 79 169 0.9 1.7 0.00 0.00 0.00 89 1017.4
20260831110353 79 209 3.5 5.2 0.00 0.00 0.00 89 1017.4
20260831105851 79 215 3.5 5.2 0.00 0.00 0.00 88 1017.5
20260831105347 79 184 2.6 3.5 0.00 0.00 0.00 89 1017.5
20260831104842 79 175 2.6 3.5 0.00 0.00 0.00 89 1017.3
20260831104338 79 192 4.3 6.1 0.00 0.00 0.00 88 1017.5
20260831103833 79 199 5.2 6.1 0.00 0.00 0.00 88 1017.4
20260831103328 79 229 1.7 2.6 0.00 0.00 0.00 89 1017.6
20260831102823 79 189 4.3 5.2 0.00 0.00 0.00 89 1017.5
20260831102318 79 201 3.5 3.5 0.00 0.00 0.00 88 1017.5
20260831101814 79 206 1.7 1.7 0.00 0.00 0.00 88 1017.6
20260831101309 79 197 2.6 3.5 0.00 0.00 0.00 88 1017.5
20260831100805 79 195 3.5 5.2 0.00 0.00 0.00 88 1017.7
20260831100301 79 195 2.6 2.6 0.00 0.00 0.00 88 1017.8
20260831095800 79 182 3.5 3.5 0.00 0.00 0.00 88 1017.6
20260831095254 79 222 4.3 6.1 0.00 0.00 0.00 89 1017.6
20260831094749 79 212 0.9 0.9 0.00 0.00 0.00 89 1017.5
20260831094244 79 163 2.6 2.6 0.00 0.00 0.00 89 1017.6
20260831093740 79 205 1.7 2.6 0.00 0.00 0.00 89 1017.4
20260831093235 79 165 1.7 2.6 0.00 0.00 0.00 89 1017.6
20260831092732 79 170 2.6 3.5 0.00 0.00 0.00 89 1017.4
20260831092227 79 206 1.7 2.6 0.00 0.00 0.00 88 1017.5
20260831091726 79 189 4.3 6.1 0.00 0.00 0.00 88 1017.5
20260831091222 79 204 4.3 6.1 0.00 0.00 0.00 88 1017.6
20260831090717 79 192 3.5 3.5 0.00 0.00 0.00 87 1017.2
20260831090214 79 176 3.5 3.5 0.00 0.00 0.00 87 1017.2
20260831085709 79 187 7.8 8.7 0.00 0.00 0.00 87 1017.4
20260831085204 79 204 3.5 3.5 0.00 0.00 0.00 88 1017.4
20260831084659 79 185 1.7 2.6 0.00 0.00 0.00 88 1017.5
20260831084155 79 176 2.6 2.6 0.00 0.00 0.00 88 1017.3
20260831083651 79 96 1.7 2.6 0.00 0.00 0.00 88 1017.5
20260831083146 79 188 4.3 7.0 0.00 0.00 0.00 88 1017.4
20260831082644 79 180 6.1 7.8 0.00 0.00 0.00 87 1017.4
20260831082140 80 172 7.8 9.6 0.00 0.00 0.00 87 1017.4
20260831081636 80 144 4.3 5.2 0.00 0.00 0.00 87 1017.5
20260831081132 80 181 2.6 5.2 0.00 0.00 0.00 86 1017.5
20260831080627 80 190 7.8 8.7 0.00 0.00 0.00 86 1017.5
20260831080121 80 122 5.2 5.2 0.00 0.00 0.00 86 1017.6
20260831075618 80 132 4.3 6.1 0.00 0.00 0.00 85 1017.5
20260831075113 80 183 3.5 8.7 0.00 0.00 0.00 84 1017.4
20260831074612 80 131 2.6 6.1 0.00 0.00 0.00 84 1017.2
20260831074107 80 156 7.8 11.3 0.00 0.00 0.00 83 1017.5
20260831073602 81 177 10.4 13.0 0.00 0.00 0.00 82 1017.6
20260831073101 81 182 10.4 13.0 0.00 0.00 0.00 82 1017.5
20260831072556 81 165 1.7 2.6 0.00 0.00 0.00 79 1017.5
20260831072054 81 168 1.7 2.6 0.00 0.00 0.00 78 1017.5
20260831071551 81 172 1.7 1.7 0.00 0.00 0.00 78 1017.7
20260831071047 81 139 1.7 2.6 0.00 0.00 0.00 78 1017.5
20260831070546 82 142 4.3 6.1 0.00 0.00 0.00 78 1017.5
20260831070041 82 124 2.6 2.6 0.00 0.00 0.00 78 1017.5
20260831065538 82 166 6.1 7.8 0.00 0.00 0.00 77 1017.5
20260831065033 82 155 1.7 1.7 0.00 0.00 0.00 77 1017.7
20260831064528 82 161 1.7 2.6 0.00 0.00 0.00 76 1017.6
20260831064024 82 118 2.6 2.6 0.00 0.00 0.00 76 1017.7
20260831063519 82 167 7.0 7.8 0.00 0.00 0.00 76 1017.7
20260831063014 82 185 3.5 3.5 0.00 0.00 0.00 75 1017.6
20260831062509 83 140 0.9 1.7 0.00 0.00 0.00 75 1017.5
20260831062008 83 132 5.2 7.0 0.00 0.00 0.00 74 1017.5
20260831061506 83 146 3.5 7.0 0.00 0.00 0.00 74 1017.7
20260831061002 83 135 3.5 5.2 0.00 0.00 0.00 73 1017.5
20260831060456 83 154 3.5 5.2 0.00 0.00 0.00 73 1017.4
20260831055951 83 193 4.3 6.1 0.00 0.00 0.00 72 1017.6
20260831055446 84 149 3.5 5.2 0.00 0.00 0.00 71 1017.4
20260831054941 84 159 3.5 6.1 0.00 0.00 0.00 71 1017.4
20260831054436 84 208 3.5 5.2 0.00 0.00 0.00 71 1017.4
20260831053936 84 116 3.5 3.5 0.00 0.00 0.00 70 1017.4
20260831053433 84 166 5.2 7.0 0.00 0.00 0.00 69 1017.3
20260831052928 84 205 5.2 6.1 0.00 0.00 0.00 69 1017.3
20260831052428 84 187 5.2 6.1 0.00 0.00 0.00 69 1017.3
20260831051926 85 168 5.2 7.0 0.00 0.00 0.00 68 1017.2
20260831051425 85 118 6.1 7.8 0.00 0.00 0.00 68 1017.2
20260831050920 85 185 5.2 7.8 0.00 0.00 0.00 67 1017.4
20260831050420 85 171 2.6 3.5 0.00 0.00 0.00 66 1017.1
20260831045918 85 125 7.8 9.6 0.00 0.00 0.00 66 1017.0
20260831045418 86 84 1.7 2.6 0.00 0.00 0.00 65 1017.2
20260831044913 86 153 7.0 7.8 0.00 0.00 0.00 64 1017.1
20260831044408 86 184 5.2 7.0 0.00 0.00 0.00 64 1016.9
20260831043904 86 168 7.8 8.7 0.00 0.00 0.00 63 1016.9
20260831043403 86 167 4.3 5.2 0.00 0.00 0.00 63 1016.9
20260831042859 86 101 4.3 6.1 0.00 0.00 0.00 63 1016.9
20260831042358 86 141 7.0 7.8 0.00 0.00 0.00 62 1017.1
20260831041853 86 166 4.3 5.2 0.00 0.00 0.00 62 1016.8
20260831041352 87 180 5.2 6.1 0.00 0.00 0.00 62 1017.0
20260831040848 87 135 6.1 7.8 0.00 0.00 0.00 62 1016.9
20260831040342 87 173 3.5 5.2 0.00 0.00 0.00 62 1017.1
20260831035840 87 105 6.1 8.7 0.00 0.00 0.00 62 1016.9
20260831035339 87 173 4.3 6.1 0.00 0.00 0.00 62 1017.0
20260831034834 87 172 6.1 7.0 0.00 0.00 0.00 61 1016.9
20260831034329 87 141 3.5 5.2 0.00 0.00 0.00 61 1016.7
20260831033824 87 156 5.2 7.8 0.00 0.00 0.00 61 1016.7
20260831033319 87 171 9.6 13.0 0.00 0.00 0.00 60 1016.7
20260831032814 88 173 3.5 3.5 0.00 0.00 0.00 61 1016.8
20260831032309 88 128 7.8 8.7 0.00 0.00 0.00 60 1016.7
20260831031804 88 93 3.5 6.1 0.00 0.00 0.00 60 1016.7
20260831031303 88 96 6.1 11.3 0.00 0.00 0.00 60 1016.4
20260831030759 88 235 9.6 13.9 0.00 0.00 0.00 60 1016.5
20260831030256 88 187 2.6 3.5 0.00 0.00 0.00 60 1016.4
20260831025756 88 157 7.0 8.7 0.00 0.00 0.00 60 1016.2
20260831025250 88 108 3.5 5.2 0.00 0.00 0.00 61 1016.2
20260831024746 88 125 5.2 6.1 0.00 0.00 0.00 61 1016.2
20260831024245 88 144 7.0 8.7 0.00 0.00 0.00 60 1016.0
20260831023744 89 82 8.7 9.6 0.00 0.00 0.00 60 1016.2
20260831023243 89 88 4.3 6.1 0.00 0.00 0.00 59 1015.9
20260831022738 89 150 3.5 3.5 0.00 0.00 0.00 59 1015.9
20260831022237 89 127 6.1 7.8 0.00 0.00 0.00 58 1016.0
20260831021733 89 132 7.0 8.7 0.00 0.00 0.00 57 1015.8
20260831021232 90 134 3.5 6.1 0.00 0.00 0.00 56 1015.7
20260831020729 90 88 5.2 7.0 0.00 0.00 0.00 55 1015.6
20260831020228 90 94 9.6 13.0 0.00 0.00 0.00 54 1015.6
20260831015723 91 88 7.0 8.7 0.00 0.00 0.00 52 1015.6
20260831015219 91 129 1.7 2.6 0.00 0.00 0.00 48 1015.5
20260831014714 91 98 2.6 3.5 0.00 0.00 0.00 47 1014.9
20260831014209 92 77 3.5 6.1 0.00 0.00 0.00 46 1015.0
20260831013704 92 104 5.2 6.1 0.00 0.00 0.00 46 1015.0
20260831013158 92 100 1.7 2.6 0.00 0.00 0.00 46 1015.0
20260831012653 92 93 3.5 3.5 0.00 0.00 0.00 45 1014.8
20260831012149 92 87 0.0 1.7 0.00 0.00 0.00 45 1014.8
20260831011648 92 63 3.5 5.2 0.00 0.00 0.00 45 1014.9
20260831011144 93 128 3.5 5.2 0.00 0.00 0.00 45 1014.7
20260831010640 93 99 4.3 5.2 0.00 0.00 0.00 44 1014.7
20260831010135 93 136 1.7 1.7 0.00 0.00 0.00 44 1014.9
20260831005634 93 78 3.5 3.5 0.00 0.00 0.00 44 1014.7
20260831005130 93 97 3.5 5.2 0.00 0.00 0.00 44 1014.8
20260831004626 94 105 3.5 5.2 0.00 0.00 0.00 44 1014.8
20260831004121 94 106 1.7 2.6 0.00 0.00 0.00 44 1014.7
20260831003617 94 49 3.5 5.2 0.00 0.00 0.00 43 1014.7
20260831003113 94 118 1.7 3.5 0.00 0.00 0.00 43 1014.7
20260831002611 95 95 5.2 7.0 0.00 0.00 0.00 43 1014.4
20260831002107 95 132 3.5 6.1 0.00 0.00 0.00 42 1014.6
20260831001602 95 64 4.3 6.1 0.00 0.00 0.00 42 1014.5
20260831001058 95 90 2.6 3.5 0.00 0.00 0.00 42 1014.6
20260831000555 95 91 4.3 5.2 0.00 0.00 0.00 42 1014.6
20260831000054 95 77 0.0 0.9 0.00 0.00 0.00 41 1014.6
20260830235553 95 82 7.8 9.6 0.00 0.00 0.00 41 1014.6
20260830235048 95 39 2.6 3.5 0.00 0.00 0.00 42 1014.5
20260830234543 95 137 2.6 2.6 0.00 0.00 0.00 42 1014.7
20260830234038 95 76 3.5 5.2 0.00 0.00 0.00 42 1014.7
20260830233533 95 119 5.2 7.0 0.00 0.00 0.00 43 1014.7
20260830233029 95 59 2.6 3.5 0.00 0.00 0.00 43 1014.7
20260830232525 95 138 0.0 0.9 0.00 0.00 0.00 43 1014.5
20260830232021 96 196 0.9 0.9 0.00 0.00 0.00 42 1014.7
20260830231517 96 178 3.5 5.2 0.00 0.00 0.00 42 1014.9